SCP
0 0 0 0 0 0 0 0 0 0 0 0 0 0 0 0 0 0 0 0 0 0 0 0 0 0 0 0 0 0 0 0 0 0 0 0 0 0 0 0 0 0 0 0
0 0 0 0 0 0 0 0 0 0 0 0 0 0 0 0 0 0 0 0 0 0 0 0 0 0 0 0 0 0 0 0 0 0 0 0 0 0 0 0 0 0 0 0
0 0 0 0 0 0 0 0 0 0 0 0 0 0 0 0 0 0 0 0 0 0 0 0 0 0 0 0 0 0 0 0 0 0 0 0 0 0 0 0 0 0 0 0
0 0 0 0 0 0 0 0 0 0 0 0 0 0 0 0 0 0 0 0 0 0 0 0 0 0 0 0 0 0 0 0 0 0 0 0 0 0 0 0 0 0 0 0
0 0 0 0 0 0 0 0 0 0 0 0 0 0 0 0 0 0 0 0 0 0 0 0 0 0 0 0 0 0 0 0 0 0 0 0 0 0 0 0 0 0 0 0
0 0 0 0 0 0 0 0 0 0 0 0 0 0 0 0 0 0 0 0 0 0 0 0 0 0 0 0 0 0 0 0 0 0 0 0 0 0 0 0 0 0 0 0
0 0 0 0 0 0 0 0 0 0 0 0 0 0 0 0 0 0 0 0 0 0 0 0 0 0 0 0 0 0 0 -0 -0 0 0 0 0 0 0 0 0 0 0 0
0 0 0 0 0 0 0 0 0 0 0 0 0 0 0 0 0 0 0 0 0 0 0 0 0 0 0 0 0 0 0 0 0 0 0 0 0 0 0 0 0 0 0 0
0 0 0 0 0 0 0 0 0 0 0 0 0 0 0 0 0 0 0 0 0 0 0 0 -0 0 0 0 0 -0 0 0 0 0 0 0 0 0 0 0 0 0 0 0
0 0 0 0 0 0 0 0 0 0 0 0 0 0 0 0 0 0 0 0 0 0 0 0 0 0 0 0 0 -0 -0 0 0 0 0 0 0 0 0 0 0 0 0 0
0 0 0 0 0 0 0 0 0 0 0 0 0 0 0 0 0 0 0 0 0 0 0 0 0 0 0 0 -0 -0 -0 0 0 0 0 0 0 0 0 0 0 0 0 0
0 0 0 0 0 0 0 0 0 0 0 0 0 0 0 0 0 0 0 0 0 0 0 0 0 0 0 0 -0 -0 -0 0 0 0 0 0 0 0 0 0 0 0 0 0
0 0 0 0 0 0 0 0 0 0 0 0 0 0 0 0 0 0 0 0 0 0 0 0 0 0 0 0 0 0 -0 0 0 0 0 0 0 0 0 0 0 0 0 0
0 0 -0 -0 0 0 0 0 0 0 0 0 0 0 0 0 0 0 0 0 0 0 0 0 0 0 0 0 0 0 0 0 0 0 0 0 0 0 0 0 0 0 0 0
0 0 0 -0 -0 0 0 0 0 0 0 0 0 0 0 0 0 0 0 0 0 0 0 0 0 0 0 0 0 0 0 0 0 0 0 0 0 0 0 0 0 0 0 0
0 0 0 -0 -0 -0 0 0 0 0 0 0 -0 -0 0 0 0 0 0 0 0 0 0 0 0 0 0 0 0 0 0 0 0 0 0 0 0 0 0 0 0 0 0 0
0 0 0 0 -0 -0 0 0 0 0 0 0 0 0 0 0 0 0 0 0 0 0 0 0 0 0 0 0 0 0 0 0 0 0 0 0 0 0 0 0 0 0 0 0
0 0 0 0 0 0 0 0 0 0 0 0 0 0 0 0 0 0 0 0 0 0 0 0 0 0 0 0 0 0 0 0 0 0 0 0 0 0 0 0 0 0 0 0
0 0 0 0 0 0 0 0 0 0 0 0 0 0 0 0 0 0 0 0 0 0 0 0 0 0 0 0 0 0 0 0 0 0 0 0 0 0 0 0 0 0 0 0
0 0 0 0 0 0 0 0 0 0 0 0 0 0 0 0 0 0 0 0 0 0 0 0 0 0 0 0 0 0 0 0 0 0 0 0 0 0 0 0 0 0 0 0
0 0 0 0 0 0 -0 0 0 0 0 0 0 0 0 0 0 0 0 0 0 0 0 0 0 0 0 0 0 0 0 0 0 0 0 0 0 0 0 0 0 0 0 0
0 0 0 0 0 0 -0 0 0 0 0 0 0 0 0 0 0 0 0 0 0 0 0 0 0 0 0 0 0 0 0 0 0 0 0 0 0 0 0 0 0 0 0 0
0 0 0 0 0 0 0 0 0 0 0 0 0 0 0 0 0 0 0 0 0 0 0 0 0 0 0 0 0 0 0 0 0 0 0 0 0 0 0 0 0 0 0 0
0 0 0 0 0 0 0 0 0 0 0 0 0 0 0 0 0 0 0 0 0 0 0 0 0 0 0 0 0 0 0 0 0 0 0 0 0 0 0 0 0 0 0 0
0 0 0 0 0 0 0 0 0 0 0 0 0 0 0 0 0 0 0 0 0 0 0 0 0 0 0 0 0 0 0 0 0 0 0 0 0 0 0 0 0 0 0 0
0 0 0 0 0 0 0 0 0 0 0 0 0 0 0 0 0 0 0 0 0 0 0 0 0 0 0 0 0 0 0 0 0 0 0 0 0 0 0 0 0 0 0 0
0 0 0 0 0 0 0 0 0 0 0 0 0 0 0 0 0 0 0 -0 -0 -0 -0 0 0 0 0 0 0 0 0 0 0 0 0 0 0 0 0 0 0 0 0 0
Wind_Speed
8 8 6 7 8 7 7 7 7 7 6 6 3 2 2 2 2 3 2 3 3 2 1 2 2 1 0 0 1 2 3 3 2 2 2 2 2 2 3 3 2 2 2 2
6 6 5 7 7 7 8 6 6 7 8 4 2 1 2 2 2 1 1 2 2 3 2 2 1 1 1 0 1 2 3 2 2 2 3 2 2 3 3 3 2 2 2 2
5 5 3 5 5 4 2 3 4 7 6 2 2 2 2 2 2 1 2 2 2 2 2 2 1 1 1 1 1 2 2 2 2 3 3 2 3 3 3 3 3 2 2 2
3 2 3 4 2 2 1 3 1 2 4 2 2 3 3 1 1 1 2 2 2 2 2 2 1 1 0 1 1 2 2 2 2 2 3 3 3 3 2 2 2 2 1 2
1 2 4 4 5 4 2 4 4 3 5 4 3 3 4 3 2 2 3 2 2 2 2 2 1 1 1 1 1 1 1 1 2 3 3 3 3 2 2 2 2 1 1 2
1 0 2 5 8 7 1 3 6 5 5 5 4 3 4 5 4 4 3 2 2 2 2 2 2 1 2 1 1 1 1 1 1 2 3 3 2 2 1 2 2 2 1 1
1 1 3 6 9 5 3 5 8 6 5 4 2 3 4 4 4 3 3 3 2 2 2 2 2 2 2 1 0 1 1 2 2 2 2 3 2 1 2 2 2 1 1 0
0 1 5 7 5 3 3 5 6 6 5 4 4 4 4 4 4 4 4 4 3 3 3 3 2 2 2 1 1 1 2 2 2 2 2 2 3 2 2 2 2 1 1 0
2 2 3 3 3 4 4 5 6 6 6 4 4 4 4 4 4 4 4 4 3 3 3 4 3 2 1 1 1 2 2 2 2 2 2 2 2 2 1 1 1 1 1 1
2 4 4 5 5 6 6 5 6 6 5 4 4 4 4 4 4 4 4 4 4 4 4 4 4 3 2 1 2 2 2 2 2 2 2 2 1 1 1 1 1 1 1 1
3 5 6 6 6 7 7 6 7 7 6 5 5 5 4 4 4 4 4 4 3 3 3 3 4 3 3 2 2 2 2 1 1 1 1 1 0 0 1 2 2 2 2 2
3 4 4 6 7 7 7 7 6 6 7 7 5 5 5 4 4 3 3 4 4 4 4 3 4 3 3 3 2 2 1 1 1 0 0 0 0 1 2 2 3 3 4 3
4 5 4 6 6 7 6 6 6 5 5 5 5 4 4 4 4 4 4 4 4 4 3 3 4 4 4 3 2 2 1 0 0 0 0 0 0 0 1 2 3 3 3 4
4 4 4 5 6 7 6 6 5 5 5 5 4 4 4 4 4 5 5 4 4 4 4 4 4 4 5 4 3 2 1 1 1 0 0 0 1 1 1 1 2 2 3 4
5 4 4 5 5 5 5 5 5 6 6 6 4 4 4 4 4 4 4 4 4 5 5 4 4 5 5 4 2 2 1 1 1 1 1 1 1 1 1 1 2 2 2 2
6 5 3 4 6 6 6 6 5 6 6 5 5 5 5 4 4 4 4 4 4 5 5 5 5 5 4 4 3 2 1 2 2 1 1 1 1 1 1 1 1 2 2 2
6 6 6 7 7 6 5 5 4 4 5 5 5 5 4 4 4 5 5 5 4 4 4 4 5 5 4 3 3 2 1 1 2 1 1 1 1 1 2 1 2 2 2 2
4 5 5 5 5 6 6 5 4 4 4 4 4 4 4 4 4 5 5 4 4 5 4 4 5 5 4 4 2 2 2 1 1 1 1 2 2 2 2 2 2 2 2 2
6 5 5 5 4 4 4 5 5 4 4 4 4 4 3 3 4 4 4 4 4 5 5 5 8 5 4 4 4 2 2 2 2 2 2 3 2 2 2 2 2 2 2 2
7 6 6 6 5 4 4 5 5 4 4 3 3 4 4 4 4 4 4 3 3 3 5 6 5 4 4 4 5 2 2 2 2 2 2 2 2 2 2 2 2 2 2 2
8 7 7 6 6 5 5 5 4 5 5 4 3 4 4 4 4 4 3 4 4 5 5 7 4 4 4 4 4 2 2 2 2 2 2 2 2 2 2 2 2 2 2 2
6 6 6 6 6 6 5 4 4 4 4 4 4 3 4 4 4 4 3 3 4 8 6 3 3 5 6 6 2 2 2 2 2 2 2 2 2 2 2 3 3 3 2 2
6 5 6 6 6 6 5 5 5 4 4 4 4 4 4 4 3 3 4 3 4 7 5 4 7 9 9 5 3 2 2 3 3 3 2 2 2 3 3 3 3 3 2 2
6 6 6 5 5 5 6 6 5 4 4 4 4 4 3 4 3 2 3 7 9 9 5 7 10 10 9 3 3 3 3 3 3 3 3 3 2 3 3 3 3 2 2 2
5 5 5 6 5 5 5 6 5 5 4 4 4 4 3 3 3 4 4 5 8 8 5 7 10 9 5 3 3 3 3 3 3 3 3 3 3 3 3 2 2 2 2 2
5 5 4 5 4 4 5 5 4 4 5 5 5 4 4 3 3 4 3 4 6 7 5 4 5 6 4 4 4 4 3 4 4 3 3 3 3 3 3 3 3 3 2 3
5 4 4 4 4 4 4 4 5 5 5 5 6 5 5 4 4 4 4 4 4 4 4 4 4 4 4 4 4 4 4 3 3 3 3 3 3 3 3 3 3 2 2 3
Wind_Direction
267 277 272 267 267 248 227 226 231 254 257 279 315 320 333 2 13 17 20 18 9 2 12 19 11 6 36 123 136 141 142 148 157 149 140 135 128 126 122 123 130 128 123 130
284 278 272 284 284 253 246 252 252 269 278 299 312 356 4 354 354 336 344 348 348 346 352 1 354 333 318 248 181 149 153 158 145 133 131 130 128 127 125 119 117 118 133 148
276 292 319 301 297 267 249 262 231 246 262 323 341 329 298 289 295 289 309 328 333 322 312 307 303 299 265 245 176 154 157 152 148 139 135 140 136 128 132 131 122 127 144 151
273 328 248 259 329 321 288 332 316 283 299 300 286 294 304 317 300 306 308 306 311 318 324 321 320 328 314 147 147 150 144 142 147 140 138 138 133 138 136 129 133 144 152 161
242 248 284 319 344 339 303 321 347 322 324 332 343 4 351 359 8 324 304 302 298 309 324 333 337 357 58 96 116 127 148 155 160 150 140 136 139 142 131 128 126 135 153 151
266 237 282 307 320 319 334 331 355 348 332 333 358 350 308 338 350 345 343 350 358 10 13 8 352 42 83 83 97 169 200 172 155 144 141 143 145 136 110 124 132 133 123 141
272 265 280 315 326 354 56 311 332 337 338 343 327 283 299 331 345 357 358 358 21 43 31 9 14 64 72 66 10 304 72 103 99 104 126 133 126 118 122 114 114 115 122 121
322 293 288 331 360 22 308 323 340 341 341 341 331 334 345 354 354 2 7 14 32 41 22 10 26 75 76 40 353 47 80 88 89 84 100 112 112 106 113 126 129 129 136 285
203 230 297 329 337 327 340 340 339 340 337 343 347 349 351 354 359 4 8 17 29 41 27 14 14 59 90 5 46 71 78 75 75 75 79 103 119 124 123 135 151 174 188 226
301 299 321 337 344 352 353 345 338 343 344 354 359 354 357 359 4 8 7 16 27 39 33 13 6 25 45 46 64 77 80 70 69 79 71 73 93 124 145 168 178 196 209 224
301 307 327 346 351 342 344 350 356 357 358 359 4 1 2 5 7 10 8 11 23 32 28 11 9 23 28 38 64 67 67 69 73 72 87 79 55 193 204 213 214 213 215 213
282 306 307 312 326 337 343 345 350 355 357 359 7 6 6 7 6 10 12 14 18 20 23 17 19 23 18 23 51 68 64 62 74 79 84 100 30 341 319 287 278 265 249 249
293 310 307 306 327 340 340 339 346 352 350 349 355 4 11 8 8 16 18 19 20 18 17 17 21 16 6 10 28 42 49 43 346 108 135 195 228 265 322 337 327 307 292 282
324 331 322 327 325 332 339 342 350 358 360 357 353 1 10 12 16 19 14 9 15 21 19 18 19 5 355 359 7 8 10 2 352 330 301 276 259 253 249 274 311 314 304 298
333 326 295 306 321 338 349 358 7 4 2 1 0 2 4 8 8 4 2 4 13 18 13 11 8 351 348 351 354 351 347 333 319 311 303 295 287 276 267 270 278 295 320 315
324 332 334 342 342 346 355 0 359 350 351 353 356 354 353 357 360 360 3 9 12 1 354 354 348 338 341 345 343 336 323 326 331 311 296 291 282 277 275 273 281 286 290 300
341 340 340 337 335 336 337 334 334 332 339 343 342 344 354 2 4 1 356 353 350 342 339 339 333 334 339 338 331 320 317 314 323 323 298 281 276 272 272 272 277 283 284 286
321 309 307 304 312 320 327 332 332 333 331 326 333 351 0 0 350 341 339 340 345 345 344 337 333 334 334 332 325 320 316 309 301 292 291 288 285 276 273 270 269 275 289 294
335 326 322 322 320 317 319 325 327 329 329 334 341 344 340 335 330 326 329 337 342 336 332 330 333 335 331 329 333 326 330 322 308 296 284 284 292 289 283 276 275 275 281 288
336 334 336 337 340 334 326 324 326 326 326 333 338 339 338 333 330 330 331 324 316 309 314 327 333 330 326 322 332 330 326 313 301 296 295 286 280 281 279 278 276 275 275 273
334 339 342 342 339 338 334 328 327 326 330 337 337 329 322 322 326 328 329 322 322 329 330 331 333 325 319 323 328 326 315 303 296 293 290 284 279 278 278 275 273 274 273 272
335 339 339 340 341 340 338 334 329 329 333 336 333 329 328 328 329 325 311 298 314 327 332 325 324 327 329 330 327 321 312 304 296 289 282 278 275 275 274 274 273 274 271 268
336 338 340 341 337 331 334 340 338 336 333 328 325 324 319 311 312 315 315 315 319 323 328 320 324 329 331 334 326 320 316 310 302 294 283 275 273 272 273 273 272 271 269 267
340 342 340 337 338 343 343 340 337 334 327 322 321 317 317 319 315 302 294 310 320 321 319 317 326 329 333 332 322 317 310 304 299 294 288 283 278 275 273 271 270 270 267 265
338 337 339 345 348 344 336 334 335 337 337 332 329 327 322 311 302 306 309 309 316 323 318 319 325 329 330 318 314 308 303 299 297 294 286 286 284 282 279 275 270 269 269 266
337 338 336 335 332 329 330 332 333 334 334 331 329 327 325 320 309 304 306 307 308 317 319 314 314 318 313 307 304 302 299 302 305 302 295 291 286 284 282 278 273 269 268 267
337 338 338 338 338 337 334 332 330 329 328 323 318 321 326 326 323 321 318 316 315 314 310 308 307 306 305 305 304 302 299 296 293 291 290 286 283 281 280 275 275 274 272 271